Charlevoix, MI

12:30 PM EST on February 10, 2016 (GMT -0500)
Charlevoix Municipal

Weather History for KCVX - February, 2013

Change the Weather History Date:

Friday, February 1, 2013

  Actual Average Record
Temperature  
Mean Temperature 14 °F -  
Max Temperature 17 °F 33 °F 37 °F (2012)
Min Temperature 11 °F 24 °F 3 °F (2015)
Degree Days  
Heating Degree Days 51    
Moisture  
Dew Point 9 °F    
Average Humidity 77    
Maximum Humidity 86    
Minimum Humidity 67    
Precipitation  
Precipitation 0.00 in - - ()
Sea Level Pressure  
Sea Level Pressure 30.04 in    
Wind  
Wind Speed 16 mph (West)    
Max Wind Speed 22 mph    
Max Gust Speed 29 mph    
Visibility 3 miles    
Events Snow    
Averages and records for this station are not official NWS values.
T = Trace of Precipitation, MM = Missing Value Source: NWS Daily Summary

Daily Weather History Graph

Daily Weather History Graph

Search for Another Location

Airport or City:

Trip Planner

Search our weather history database for the weather conditions in past years. The results will help you decide how hot, cold, wet, or windy it might be!

Date:

Astronomy

Feb. 01, 2013 Rise Set
Actual Time 8:01 AM EST 5:48 PM EST
Civil Twilight 7:29 AM EST 6:20 PM EST
Nautical Twilight 6:54 AM EST 6:55 PM EST
Astronomical Twilight 6:19 AM EST 7:30 PM EST
Moon No Moon Rise 10:15 AM EST (2/1)
Length of Visible Light 10h 50m
Length of Day
9h 47m
Waning Gibbous, 70% of the Moon is Illuminated
Feb 1
Waning Gibbous
Feb 3
Last Quarter
Feb 10
New
Feb 17
First Quarter
Feb 25
Full

Hourly Weather History & Observations

Time (EST) Temp. Windchill Dew Point Humidity Pressure Visibility Wind Dir Wind Speed Gust Speed Precip Events Conditions
12:15 AM 17.6 °F 0.9 °F 11.5 °F 77% 29.85 in 3.0 mi NW 20.7 mph 27.6 mph N/A Snow Light Snow
12:35 AM 17.6 °F 1.7 °F 12.0 °F 79% 29.86 in 2.0 mi NW 18.4 mph 28.8 mph N/A Snow Light Snow
12:55 AM 17.6 °F 3.2 °F 11.7 °F 78% 29.86 in 2.5 mi NW 15.0 mph 24.2 mph N/A Snow Light Snow
1:15 AM 17.4 °F 1.5 °F 11.5 °F 78% 29.87 in 2.0 mi NW 18.4 mph 24.2 mph N/A Snow Light Snow
1:34 AM 17.4 °F 1.9 °F 9.1 °F 70% 29.87 in 5.0 mi NW 17.3 mph 26.5 mph N/A   Haze
1:55 AM 17.4 °F 1.0 °F 11.3 °F 77% 29.88 in 2.5 mi NW 19.6 mph 25.3 mph N/A Snow Light Snow
2:15 AM 16.9 °F 0.8 °F 12.4 °F 82% 29.89 in 1.0 mi NW 18.4 mph 28.8 mph N/A Snow Light Snow
2:34 AM 17.2 °F -0.0 °F 9.7 °F 72% 29.89 in 2.0 mi NW 21.9 mph 28.8 mph N/A Snow Light Snow
3:15 AM 16.7 °F 1.0 °F 12.9 °F 85% 29.92 in 1.0 mi NW 17.3 mph 26.5 mph N/A Snow Snow
3:35 AM 16.7 °F -0.3 °F 7.5 °F 67% 29.92 in 2.5 mi NW 20.7 mph 26.5 mph N/A Snow Light Snow
3:55 AM 16.0 °F -1.3 °F 11.7 °F 83% 29.93 in 0.8 mi NW 20.7 mph 26.5 mph N/A Snow Snow
4:15 AM 16.5 °F 0.3 °F 12.4 °F 84% 29.93 in 1.0 mi NW 18.4 mph 26.5 mph N/A Snow Light Snow
4:35 AM 15.6 °F 0.6 °F 12.0 °F 86% 29.94 in 0.8 mi NNW 15.0 mph 28.8 mph N/A Snow Snow
4:54 AM 16.5 °F 1.8 °F 10.8 °F 78% 29.95 in 2.0 mi NW 15.0 mph 24.2 mph N/A Snow Light Snow
5:15 AM 16.0 °F -0.4 °F 12.6 °F 86% 29.96 in 1.0 mi NW 18.4 mph 24.2 mph N/A Snow Light Snow
5:35 AM 16.3 °F 1.0 °F 8.8 °F 72% 29.97 in 2.5 mi NW 16.1 mph 28.8 mph N/A Snow Light Snow
5:54 AM 16.2 °F 0.3 °F 7.2 °F 68% 29.97 in 2.5 mi NW 17.3 mph 27.6 mph N/A Snow Light Snow
6:15 AM 16.5 °F 0.3 °F 10.4 °F 77% 29.99 in 2.5 mi WNW 18.4 mph 21.9 mph N/A Snow Light Snow
6:34 AM 15.8 °F -0.6 °F 11.1 °F 82% 29.99 in 1.2 mi NW 18.4 mph 25.3 mph N/A Snow Light Snow
6:55 AM 15.8 °F -0.6 °F 9.0 °F 74% 30.00 in 2.5 mi WNW 18.4 mph 25.3 mph N/A Snow Light Snow
7:14 AM 15.6 °F 0.1 °F 9.5 °F 77% 30.02 in 3.0 mi WNW 16.1 mph 24.2 mph N/A Snow Light Snow
7:35 AM 15.4 °F -0.1 °F 8.6 °F 74% 30.03 in 2.5 mi WNW 16.1 mph 24.2 mph N/A Snow Light Snow
7:54 AM 15.3 °F -0.9 °F 9.1 °F 77% 30.04 in 1.8 mi WNW 17.3 mph 25.3 mph N/A Snow Light Snow
8:15 AM 15.3 °F -0.4 °F 8.8 °F 76% 30.04 in 1.2 mi WNW 16.1 mph 24.2 mph N/A Snow Light Snow
8:35 AM 15.6 °F 0.1 °F 8.2 °F 73% 30.05 in 2.0 mi WNW 16.1 mph 25.3 mph N/A Snow Light Snow
9:15 AM 15.1 °F -0.1 °F 9.9 °F 80% 30.07 in 1.2 mi WNW 15.0 mph 20.7 mph N/A Snow Light Snow
9:34 AM 15.4 °F 0.4 °F 9.3 °F 77% 30.08 in 1.8 mi WNW 15.0 mph 23.0 mph N/A Snow Light Snow
10:15 AM 15.4 °F 2.3 °F 9.7 °F 78% 30.09 in 1.8 mi WNW 11.5 mph 24.2 mph N/A Snow Light Snow
10:34 AM 15.4 °F 1.0 °F 6.6 °F 68% 30.09 in 3.0 mi West 13.8 mph - N/A Snow Light Snow
10:55 AM 15.8 °F 0.3 °F 9.0 °F 74% 30.09 in 2.0 mi West 16.1 mph - N/A Snow Light Snow
11:15 AM 15.6 °F 1.2 °F 9.0 °F 75% 30.10 in 2.5 mi WNW 13.8 mph 19.6 mph N/A Snow Light Snow
11:34 AM 15.8 °F 2.7 °F 7.5 °F 70% 30.10 in 7.0 mi WNW 11.5 mph - N/A   Overcast
11:55 AM 16.0 °F 2.9 °F 8.2 °F 72% 30.11 in 5.0 mi WNW 11.5 mph - N/A Snow Light Snow
12:15 PM 15.8 °F 2.1 °F 7.7 °F 70% 30.10 in 2.5 mi WNW 12.7 mph - N/A Snow Light Snow
12:34 PM 15.8 °F -0.2 °F 8.1 °F 72% 30.11 in 4.0 mi West 17.3 mph 23.0 mph N/A Snow Light Snow
12:55 PM 15.3 °F 0.8 °F 8.8 °F 76% 30.10 in 1.8 mi West 13.8 mph 24.2 mph N/A Snow Light Snow
1:15 PM 15.6 °F 1.2 °F 7.9 °F 72% 30.10 in 7.0 mi WSW 13.8 mph 21.9 mph N/A   Overcast
1:34 PM 14.9 °F 0.3 °F 10.2 °F 82% 30.10 in 1.0 mi West 13.8 mph 19.6 mph N/A Snow Light Snow
1:55 PM 15.1 °F 2.5 °F 9.3 °F 78% 30.10 in 2.0 mi WSW 10.4 mph - N/A Snow Light Snow
2:14 PM 15.4 °F 0.4 °F 9.7 °F 78% 30.09 in 2.0 mi West 15.0 mph 20.7 mph N/A Snow Light Snow
2:35 PM 14.7 °F 0.1 °F 10.4 °F 83% 30.09 in 0.8 mi WSW 13.8 mph 19.6 mph N/A Snow Light Snow
2:55 PM 14.9 °F 0.9 °F 8.2 °F 75% 30.09 in 3.0 mi SW 12.7 mph 19.6 mph N/A Snow Light Snow
3:15 PM 14.9 °F 1.6 °F 8.2 °F 75% 30.10 in 5.0 mi WSW 11.5 mph - N/A Snow Light Snow
3:35 PM 14.7 °F 0.7 °F 7.9 °F 74% 30.10 in 3.0 mi WSW 12.7 mph - N/A Snow Light Snow
3:54 PM 14.9 °F 0.3 °F 6.4 °F 69% 30.10 in 7.0 mi WSW 13.8 mph - N/A   Overcast
4:15 PM 14.0 °F -0.8 °F 10.0 °F 84% 30.10 in 0.5 mi WSW 13.8 mph 18.4 mph N/A Snow Light Snow
4:35 PM 14.5 °F 0.5 °F 7.9 °F 75% 30.10 in 2.5 mi WSW 12.7 mph 20.7 mph N/A Snow Light Snow
5:15 PM 14.0 °F -0.2 °F 8.1 °F 77% 30.09 in 2.5 mi WSW 12.7 mph 17.3 mph N/A Snow Light Snow
5:35 PM 14.0 °F 2.0 °F 8.1 °F 77% 30.10 in 5.0 mi SW 9.2 mph - N/A Snow Light Snow
6:15 PM 13.3 °F 0.3 °F 9.7 °F 86% 30.09 in 1.8 mi SW 10.4 mph - N/A Snow Light Snow
6:34 PM 13.1 °F -0.7 °F 9.0 °F 84% 30.09 in 1.5 mi SW 11.5 mph 17.3 mph N/A Snow Light Snow
6:55 PM 13.1 °F -2.0 °F 8.4 °F 82% 30.09 in 2.0 mi SW 13.8 mph 18.4 mph N/A Snow Light Snow
7:14 PM 12.9 °F -0.9 °F 9.1 °F 85% 30.09 in 1.2 mi SW 11.5 mph - N/A Snow Light Snow
7:35 PM 12.9 °F -0.9 °F 9.1 °F 85% 30.09 in 1.5 mi SW 11.5 mph 19.6 mph N/A Snow Light Snow
7:54 PM 13.1 °F 0.9 °F 7.7 °F 79% 30.09 in 2.0 mi SSW 9.2 mph - N/A Snow Light Snow
8:15 PM 13.1 °F -0.7 °F 7.5 °F 78% 30.09 in 2.0 mi SW 11.5 mph 17.3 mph N/A Snow Light Snow
8:35 PM 12.6 °F 0.2 °F 8.4 °F 83% 30.08 in 1.0 mi SSW 9.2 mph 17.3 mph N/A Snow Light Snow
9:00 PM 12.7 °F -1.8 °F 9.3 °F 86% 30.08 in 1.0 mi SW 12.7 mph - N/A Snow Light Snow
9:15 PM 13.1 °F -2.6 °F 5.4 °F 71% 30.08 in 10.0 mi WSW 15.0 mph 20.7 mph N/A   Overcast
9:35 PM 12.6 °F -2.7 °F 5.4 °F 73% 30.07 in 3.0 mi West 13.8 mph - N/A Snow Light Snow
9:54 PM 12.2 °F -4.3 °F 5.2 °F 73% 30.07 in 3.0 mi WSW 16.1 mph 19.6 mph N/A Snow Light Snow
10:15 PM 11.8 °F -3.0 °F 7.0 °F 81% 30.08 in 1.5 mi WSW 12.7 mph 19.6 mph N/A Snow Light Snow
10:34 PM 11.7 °F -4.4 °F 7.7 °F 84% 30.08 in 1.2 mi WSW 15.0 mph 19.6 mph N/A Snow Light Snow
10:55 PM 12.0 °F -3.4 °F 6.6 °F 79% 30.08 in 2.5 mi WSW 13.8 mph - N/A Snow Light Snow
11:14 PM 11.7 °F -3.8 °F 5.9 °F 78% 30.07 in 3.0 mi West 13.8 mph - N/A Snow Light Snow
11:35 PM 11.8 °F -3.0 °F 5.7 °F 76% 30.07 in 4.0 mi West 12.7 mph 18.4 mph N/A Snow Light Snow
11:54 PM 11.8 °F -3.0 °F 5.0 °F 74% 30.07 in 7.0 mi WSW 12.7 mph 17.3 mph N/A Snow Light Snow